Regional Weather Roundup
Issued by NWS State College, PA

Home | Current Version | Previous Version | Text Only | Print | Product List | Glossary On
Versions: 1 2 3 4 5 6 7 8 9 10 11 12 13 14 15 16 17 18 19 20 21 22 23 24 25 26 27 28 29 30 31 32 33 34 35 36 37 38 39 40 41 42 43 44 45 46 47 48 49 50
000
ASUS41 KCTP 211810
RWRCTP

REGIONAL WEATHER ROUNDUP
NATIONAL WEATHER SERVICE STATE COLLEGE PA
200 PM EDT SUN SEP 21 2014

Note: "fair" indicates few or no clouds below 12,000 feet with no
significant weather and/or obstructions to visibility.

* = STATION THAT DOES NOT REPORT PRECIPITATION /E.G. RAIN...SNOW...ETC/
    THUNDER OR FOG.

PAZ002>004-007>009-013>016-020>023-029>032-211900-
WESTERN PENNSYLVANIA

CITY           SKY/WX    TMP DP  RH WIND       PRES   REMARKS
ERIE           SUNNY     71  58  63 W18G28    29.67S
MEADVILLE      MOSUNNY   71  62  73 W13G18    29.68F
FRANKLIN*      SUNNY     73  63  68 SW15G22   29.69F
NEW CASTLE     NOT AVBL
BEAVER COUNTY  MOSUNNY   79  61  53 SW14G22   29.70F
BUTLER*        MOSUNNY   79  63  57 SW17G25   29.71F
PITTSBURGH INT MOSUNNY   74  65  73 W6        29.71F
PITTSBURGH     MOSUNNY   76  61  59 SW13G22   29.72F
INDIANA*       CLOUDY    73  66  78 SW12      29.76F
LATROBE        PTSUNNY   73  68  83 SW14      29.76F
WASHINGTON CO* PTSUNNY   75  64  69 SW13G22   29.74F
$$

PAZ004>006-010>012-017>019-024>028-033>037-041-042-045-046-049>053-211900-
CENTRAL PENNSYLVANIA

CITY           SKY/WX    TMP DP  RH WIND       PRES   REMARKS
BRADFORD       PTSUNNY   70  61  73 VRB7G17   29.69S
DUBOIS         MOSUNNY   71  63  75 SW14      29.70F
CLEARFIELD     PTSUNNY   74  64  71 SW12G20   29.72F
JOHNSTOWN      CLOUDY    68  61  78 SW17G23   29.77F
ALTOONA        CLOUDY    74  65  73 SW17      29.74F
STATE COLLEGE  CLOUDY    73  64  73 SW7       29.71F
WILLIAMSPORT   PTSUNNY   76  61  59 S9        29.67F
SELINSGROVE    MOSUNNY   79  62  56 S9        29.70F
FT INDIANTOWN  SUNNY     77  64  64 SW5       29.73F
CAPITAL CITY   SUNNY     81  63  54 E8        29.71F
HARRISBURG     MOSUNNY   81  63  54 SE7       29.71F
YORK           SUNNY     82  62  50 S5        29.73F
$$

PAZ038>040-043-044-047-048-054-055-060>062-067>071-211900-
EASTERN PENNSYLVANIA

CITY           SKY/WX    TMP DP  RH WIND       PRES   REMARKS
SCRANTON       MOSUNNY   81  59  47 S8G16     29.71F
MOUNT POCONO   MOSUNNY   76  54  46 S10       29.79F
ALLENTOWN      MOSUNNY   74  59  59 S5        29.76F
QUAKERTOWN*    MOCLDY    77  61  57 SE3       29.76F
READING        SUNNY     77  60  55 CALM      29.74F
LANCASTER      MOSUNNY   78  60  53 SE6       29.74F
COATESVILLE    PTCLDY    75  63  64 CALM      29.76F
POTTSTOWN      MOSUNNY   75  60  59 CALM      29.76F
BLUE BELL      PTSUNNY   79  61  53 CALM      29.74F
DOYLESTOWN     PTSUNNY   77  61  57 CALM      29.74F
WILLOW GROVE   NOT AVBL
NORTH PHILA    CLOUDY    77  63  61 E6        29.76F
PHILADELPHIA   CLOUDY    76  66  71 SE7       29.74F
$$


USA.gov is the U.S. government's official web portal to all federal, state and local government web resources and services.